Wind_Speed
20 20 21 22 23 22 20 19 19 19 19 19 18 18 18 18 17 17 16 17 17 17 17 17 16 17 16 16 16 15 15 15 14 14 14 14 14 13 13 12 12 11 10 11 11 11 10 11 10
20 21 22 23 24 22 20 19 20 20 20 20 20 20 20 19 18 18 17 18 18 18 18 18 18 18 17 17 17 17 17 16 16 15 15 14 14 14 14 14 13 13 12 12 11 11 11 11 12
21 22 23 24 24 22 21 21 21 21 22 22 21 21 21 20 20 20 19 19 20 20 20 20 19 19 19 19 19 19 18 18 18 17 17 16 15 15 15 15 15 15 14 14 13 12 12 12 12
22 23 24 24 24 22 22 23 23 23 23 23 23 23 22 22 22 21 21 21 20 21 21 21 21 21 21 21 21 20 20 20 19 19 19 18 18 17 16 16 16 17 16 16 16 15 14 14 14
23 24 25 25 24 23 24 25 25 25 25 24 24 23 23 24 24 23 23 23 22 22 22 22 22 22 22 22 22 21 21 21 21 21 21 20 19 18 18 18 18 18 18 18 17 17 17 16 16
24 24 25 25 24 25 25 25 26 26 26 25 25 25 24 25 25 25 24 24 24 24 23 23 24 23 23 23 23 22 22 22 22 22 22 21 21 20 20 19 19 19 19 19 19 19 19 19 19
24 25 25 25 25 25 25 26 27 27 27 27 27 26 26 26 26 27 27 25 25 25 25 25 25 25 24 24 24 24 24 24 24 24 23 23 23 22 22 21 21 21 21 21 21 21 20 20 20
25 26 26 26 26 25 26 27 28 29 29 29 29 28 28 28 28 29 29 28 27 27 27 27 26 26 26 26 25 25 26 25 25 25 25 25 24 24 24 23 23 23 23 23 22 22 22 22 22
26 27 26 26 27 27 28 28 29 29 30 30 30 30 30 30 30 30 30 30 30 29 29 29 29 29 28 28 28 27 27 27 27 27 27 27 27 26 26 26 25 25 25 25 25 24 24 24 24
27 27 26 27 28 29 29 30 30 31 31 31 31 32 32 32 32 32 32 32 32 32 31 31 31 31 31 31 30 30 30 30 30 29 29 29 29 28 28 28 28 27 27 27 27 27 27 26 26
28 27 28 29 30 30 30 31 32 33 32 32 32 33 34 33 33 33 33 33 33 33 33 33 33 33 33 33 33 33 32 32 32 32 31 31 31 30 30 30 30 29 29 29 29 29 29 28 28
29 29 29 30 31 31 32 33 33 33 33 33 33 34 34 34 34 34 34 35 35 35 35 35 35 35 35 35 35 35 35 35 34 34 34 33 33 33 32 32 32 32 31 31 31 31 31 31 30
30 30 30 31 32 33 34 34 34 34 35 35 35 35 35 36 36 36 36 36 36 37 37 37 37 37 37 37 37 37 37 37 37 37 36 36 36 35 35 35 34 33 33 33 33 32 32 32 32
31 32 32 33 34 34 35 35 35 34 36 37 36 36 36 37 37 38 38 38 38 38 38 39 39 39 39 39 39 39 39 39 40 39 39 38 38 38 37 37 37 36 35 34 34 34 34 34 34
33 34 34 34 35 36 38 37 35 35 37 38 38 38 38 39 39 39 39 39 39 40 40 40 40 41 41 41 41 41 41 41 41 41 41 41 40 40 39 39 39 38 37 36 36 36 36 36 36
34 35 36 35 36 37 39 38 36 37 39 39 39 39 40 41 41 41 41 42 42 41 41 41 41 42 42 42 42 42 42 42 42 42 42 42 41 41 40 40 40 40 40 39 39 38 38 37 37
34 35 35 35 36 37 39 38 37 39 40 40 40 41 41 42 42 42 42 43 43 43 42 42 42 43 43 43 43 43 43 43 43 43 43 43 42 42 42 42 42 42 42 42 42 41 40 40 40
33 34 35 35 36 38 39 38 38 39 40 40 40 41 41 42 42 43 43 43 43 44 44 44 44 44 44 45 45 44 45 45 45 45 45 45 44 44 44 44 44 44 44 44 44 44 43 42 42
35 35 36 35 36 38 39 38 38 40 40 40 41 41 42 42 43 44 45 45 45 45 46 46 46 46 46 46 46 46 46 46 47 47 46 46 46 46 46 46 46 46 45 45 45 45 45 44 44
35 36 36 36 37 39 39 39 39 40 40 41 41 42 42 43 44 44 45 46 46 46 46 47 47 47 47 47 47 47 47 47 48 48 48 48 48 49 49 49 49 48 48 47 47 47 46 46 46
36 36 37 38 38 39 40 40 39 39 40 41 41 42 42 42 43 43 44 45 46 46 46 47 47 48 48 48 48 48 48 48 47 48 48 49 50 50 51 51 50 50 51 50 49 49 48 48 48
37 37 38 39 40 41 41 43 39 40 40 40 41 41 42 43 43 44 44 45 46 47 47 48 49 49 49 49 49 49 49 49 48 48 49 50 50 51 51 51 51 51 51 51 51 51 50 50 50
37 37 39 40 41 42 42 44 41 39 39 38 39 40 41 42 43 44 45 45 47 47 48 49 49 50 50 50 50 50 51 51 51 51 51 51 52 52 53 53 53 52 52 52 51 51 51 51 51
36 37 38 39 40 42 40 42 41 38 37 37 38 39 39 40 42 43 44 45 46 47 48 49 49 50 50 51 51 51 52 52 52 52 51 52 53 53 54 54 54 54 54 53 53 53 53 52 52
35 36 37 38 39 40 38 39 40 37 37 36 37 38 39 39 41 42 43 45 46 47 48 49 50 50 51 51 52 52 52 53 53 54 54 53 54 54 54 54 54 55 55 54 54 55 54 54 54
35 35 35 37 38 37 36 37 37 37 36 37 37 38 38 38 39 40 42 43 44 46 47 49 50 51 51 52 52 53 53 54 54 54 54 54 54 55 55 56 56 56 56 56 56 56 56 56 55
34 33 34 36 38 38 38 36 35 35 36 36 37 38 38 38 39 40 41 43 44 45 46 48 49 51 52 53 53 54 54 55 55 55 55 55 54 55 56 56 57 57 56 56 56 57 57 56 56
33 32 33 34 37 38 37 36 35 35 36 36 36 37 38 38 40 40 41 42 43 45 46 48 49 51 52 53 54 54 55 56 56 56 56 56 57 56 56 57 57 57 57 56 57 57 58 58 57
31 32 33 34 35 36 37 35 34 34 35 36 37 37 38 39 40 41 41 42 42 44 45 46 48 50 51 53 54 55 55 56 56 56 57 57 57 57 57 57 57 58 58 58 58 58 58 58 58
32 31 31 33 34 35 36 35 34 34 35 36 37 37 38 39 39 40 41 41 42 44 45 47 48 49 51 52 54 55 55 55 56 56 57 57 57 58 58 58 58 58 59 59 59 59 59 59 58
Wind_Direction
248 247 245 243 243 242 243 242 240 243 243 242 241 241 241 240 242 247 245 242 241 241 240 240 240 238 238 238 238 236 237 238 241 241 238 237 237 238 239 237 239 238 238 240 239 238 237 236 235
250 248 246 244 244 244 243 242 241 242 242 242 242 243 243 242 242 245 246 243 241 241 242 242 242 240 239 238 238 238 238 239 240 241 238 237 237 238 239 239 242 241 242 245 246 245 243 241 238
250 248 248 247 246 246 244 243 243 241 241 242 243 244 245 245 243 244 245 244 243 242 243 243 243 242 241 240 240 240 240 240 241 242 241 240 239 239 241 243 244 245 245 247 249 249 246 244 242
251 249 249 249 247 246 245 244 244 244 244 245 245 245 245 245 245 245 244 244 244 243 242 242 242 241 242 242 242 242 242 243 242 243 243 243 243 243 243 245 247 249 249 248 249 249 247 247 245
251 251 251 251 250 247 246 245 246 246 246 246 246 246 246 245 245 246 245 245 245 245 242 243 243 242 242 242 242 242 243 244 244 244 244 245 245 245 245 248 250 252 251 251 250 249 248 248 247
253 252 253 252 250 249 247 246 246 247 246 247 247 246 247 247 247 247 247 246 246 246 246 245 244 244 244 244 244 244 244 245 246 245 245 245 246 247 247 249 251 253 253 253 252 251 250 249 249
254 253 253 252 251 249 248 247 247 248 247 249 250 249 248 248 248 249 249 248 246 246 247 247 246 246 245 245 244 245 246 246 247 247 247 247 246 247 249 250 251 253 254 254 254 253 252 251 250
255 254 253 253 252 251 250 249 249 249 250 251 252 251 249 249 249 249 250 249 248 248 248 249 248 248 247 246 246 246 247 247 248 248 248 249 250 250 250 252 253 253 254 255 255 254 253 252 251
257 256 256 256 254 253 252 252 251 250 252 252 253 252 251 250 250 250 250 250 249 249 249 249 249 248 248 248 248 248 248 249 249 250 251 252 252 253 253 253 254 254 254 255 254 254 253 253 253
259 259 258 258 257 255 253 253 252 251 251 252 252 252 251 251 251 251 250 250 250 249 249 249 250 250 250 249 250 250 250 251 251 252 253 254 254 255 255 255 255 255 255 255 255 255 254 254 254
260 261 259 258 258 257 255 254 253 253 253 252 252 251 251 251 252 252 251 251 251 250 250 249 250 251 251 252 252 252 252 252 252 252 253 255 255 256 256 256 256 256 256 257 256 255 255 255 255
261 260 260 259 259 258 257 256 255 254 254 253 252 252 251 251 251 252 252 251 251 251 251 251 251 251 252 253 253 254 253 253 253 253 253 254 256 256 256 256 256 256 256 257 257 256 255 256 256
261 260 260 260 259 259 258 257 256 255 255 255 254 253 252 252 252 252 252 252 252 252 252 251 251 251 252 253 253 254 254 254 255 255 255 255 255 255 255 255 256 256 255 256 257 257 257 256 256
263 262 260 260 260 260 260 259 257 257 256 255 254 253 253 252 253 253 253 253 252 252 252 252 252 252 252 253 254 254 254 255 256 256 256 255 256 255 255 256 256 255 255 256 257 257 257 256 256
265 263 262 261 261 260 260 259 258 257 256 255 255 255 254 254 253 253 253 253 253 252 252 252 252 252 253 253 253 254 255 255 255 256 256 255 255 255 255 255 254 255 255 256 256 257 257 257 257
267 266 264 263 263 262 261 260 259 257 257 257 256 255 255 255 254 253 253 253 253 253 253 253 253 253 252 253 254 254 255 255 255 255 255 255 255 254 254 255 255 255 255 255 256 257 257 258 258
269 268 267 265 264 263 262 261 259 259 258 257 256 255 255 255 255 254 254 253 253 253 252 252 252 252 252 252 253 254 255 255 254 254 254 254 254 255 254 254 254 255 255 255 256 256 257 257 258
272 271 269 267 265 262 262 261 260 259 258 257 257 256 256 256 255 255 254 254 253 253 252 252 252 252 252 252 253 253 253 254 254 254 254 254 254 255 255 254 255 255 256 256 256 256 257 258 258
271 271 270 268 266 263 261 260 259 260 260 259 259 258 257 256 256 255 254 254 253 253 252 252 252 253 253 253 253 253 253 253 254 254 254 254 254 254 255 255 256 256 256 256 256 257 257 258 258
270 270 270 269 267 266 264 261 260 260 261 260 260 259 258 257 256 255 255 254 253 253 253 253 253 253 254 253 253 253 253 254 254 254 254 254 254 254 254 255 255 255 256 256 257 257 258 258 258
271 272 271 270 269 268 267 264 262 262 263 263 262 261 259 258 257 256 255 254 253 253 253 253 253 253 253 254 254 253 254 254 255 255 255 254 254 255 255 255 256 257 256 256 257 257 258 259 259
273 273 272 271 270 269 269 269 265 265 265 265 264 262 260 258 257 256 255 254 254 253 253 253 253 253 253 254 254 254 254 254 255 256 256 256 255 255 256 256 257 258 258 257 257 258 258 259 260
275 274 273 272 271 270 270 271 269 267 266 265 263 262 261 259 258 256 255 254 254 254 254 253 254 254 254 254 254 254 254 254 254 255 256 256 256 256 256 257 257 258 258 258 257 258 258 259 260
277 276 275 274 272 272 272 273 271 268 268 266 264 263 263 262 260 259 257 256 255 255 254 254 254 254 254 254 254 254 254 254 254 255 257 257 257 257 257 257 257 257 258 258 257 258 258 260 261
277 277 277 275 274 274 274 272 273 271 269 268 267 265 264 263 261 260 259 258 257 256 256 255 255 255 254 254 254 254 255 255 255 255 256 258 258 258 257 257 258 258 257 258 258 258 259 259 261
277 277 277 278 277 277 274 273 274 273 272 270 269 268 266 264 263 261 260 259 258 257 257 256 255 255 254 254 255 255 255 255 256 256 257 257 258 258 257 257 257 258 258 258 258 259 259 260 261
279 278 277 276 277 276 275 275 273 273 272 273 272 270 269 267 265 264 263 262 261 260 259 257 256 256 255 255 255 255 256 256 256 256 257 257 257 258 258 258 258 258 258 258 258 258 259 260 261
278 278 277 275 277 278 277 276 276 273 272 272 272 271 269 268 267 266 265 264 263 263 261 260 259 257 257 256 256 256 256 257 257 257 257 258 258 259 259 258 258 258 258 258 259 259 259 260 261
278 277 276 276 276 276 277 276 276 276 274 272 272 270 269 267 267 266 266 266 265 265 263 262 261 260 259 258 257 257 257 257 257 257 258 258 258 259 259 259 258 258 259 259 260 260 260 261 261
277 278 277 276 276 276 277 277 277 277 276 275 273 271 270 268 267 267 267 267 266 266 265 264 264 263 261 260 259 259 258 258 258 258 258 258 258 259 259 259 259 259 259 260 261 262 262 262 262
Height
5801 5802 5803 5805 5806 5807 5809 5810 5811 5812 5813 5814 5815 5816 5818 5819 5821 5824 5824 5823 5824 5825 5826 5827 5828 5828 5829 5830 5831 5832 5833 5834 5835 5836 5836 5837 5838 5839 5840 5841 5842 5843 5843 5844 5845 5845 5846 5846 5847
5797 5798 5800 5801 5801 5803 5806 5807 5808 5809 5809 5810 5812 5813 5814 5815 5817 5818 5819 5819 5820 5822 5823 5824 5825 5826 5827 5828 5829 5830 5831 5832 5833 5834 5834 5835 5836 5837 5838 5839 5840 5841 5841 5842 5843 5844 5844 5845 5845
5793 5794 5796 5796 5797 5800 5802 5803 5804 5804 5805 5807 5808 5809 5810 5812 5813 5814 5815 5816 5817 5818 5819 5820 5821 5822 5824 5825 5826 5827 5828 5829 5830 5831 5832 5833 5834 5835 5835 5836 5837 5838 5839 5840 5841 5841 5842 5843 5843
5789 5790 5791 5793 5793 5796 5798 5799 5799 5800 5801 5802 5804 5805 5806 5808 5809 5810 5811 5812 5813 5814 5815 5816 5817 5819 5820 5821 5822 5823 5825 5826 5827 5828 5829 5830 5831 5832 5833 5833 5834 5835 5836 5837 5838 5839 5840 5840 5841
5784 5785 5786 5787 5789 5791 5792 5794 5794 5795 5797 5798 5799 5801 5802 5803 5804 5805 5806 5808 5809 5810 5811 5812 5813 5815 5816 5817 5819 5820 5821 5822 5823 5825 5826 5827 5827 5829 5829 5830 5831 5832 5833 5834 5835 5836 5837 5837 5838
5780 5780 5782 5783 5784 5786 5787 5788 5789 5791 5792 5793 5794 5796 5797 5798 5799 5800 5802 5803 5804 5805 5807 5808 5809 5810 5812 5813 5815 5816 5817 5818 5819 5821 5822 5823 5824 5825 5826 5827 5828 5829 5829 5830 5831 5832 5833 5834 5834
5775 5776 5776 5778 5779 5780 5782 5783 5784 5785 5786 5788 5789 5791 5792 5793 5794 5795 5796 5798 5799 5801 5802 5803 5805 5806 5807 5808 5810 5812 5813 5814 5815 5816 5817 5818 5820 5821 5822 5823 5824 5825 5825 5826 5827 5828 5829 5830 5831
5769 5771 5771 5773 5774 5775 5777 5777 5778 5779 5780 5782 5783 5785 5787 5788 5789 5790 5791 5792 5794 5795 5797 5798 5799 5801 5802 5804 5805 5807 5808 5809 5810 5811 5813 5814 5815 5816 5818 5819 5819 5820 5821 5822 5823 5824 5825 5826 5826
5764 5766 5766 5767 5768 5770 5770 5771 5772 5773 5774 5776 5777 5779 5780 5781 5783 5784 5785 5787 5788 5790 5791 5792 5794 5795 5797 5798 5800 5801 5803 5804 5805 5806 5808 5809 5810 5811 5812 5814 5815 5815 5816 5817 5818 5819 5820 5821 5822
5758 5759 5761 5761 5762 5763 5763 5764 5765 5766 5768 5769 5770 5771 5773 5774 5776 5777 5779 5780 5782 5783 5785 5786 5788 5789 5791 5792 5794 5795 5797 5798 5799 5801 5802 5803 5804 5806 5807 5808 5809 5810 5811 5811 5812 5813 5814 5815 5816
5752 5753 5754 5754 5754 5755 5756 5757 5758 5759 5761 5762 5763 5764 5765 5766 5768 5770 5772 5773 5774 5776 5778 5780 5781 5782 5784 5786 5787 5789 5790 5792 5793 5794 5796 5797 5798 5799 5801 5802 5803 5804 5805 5806 5806 5807 5808 5809 5810
5745 5746 5746 5747 5747 5747 5748 5749 5750 5751 5753 5754 5755 5756 5757 5759 5760 5762 5764 5765 5767 5769 5770 5772 5773 5775 5776 5778 5780 5781 5783 5784 5786 5787 5788 5790 5791 5793 5794 5795 5796 5797 5798 5799 5800 5801 5801 5802 5803
5738 5739 5739 5739 5739 5739 5740 5741 5741 5743 5744 5745 5746 5748 5749 5751 5752 5754 5755 5757 5759 5760 5762 5764 5765 5767 5768 5770 5772 5773 5775 5776 5778 5779 5781 5782 5783 5785 5786 5787 5789 5790 5791 5792 5793 5793 5794 5795 5796
5730 5730 5731 5731 5731 5731 5731 5732 5733 5736 5735 5736 5738 5739 5741 5742 5743 5745 5747 5748 5750 5751 5753 5755 5756 5758 5760 5761 5763 5764 5766 5767 5769 5770 5772 5773 5775 5776 5778 5779 5781 5782 5783 5784 5785 5786 5787 5787 5788
5721 5721 5722 5723 5722 5722 5721 5723 5726 5726 5725 5727 5728 5730 5731 5732 5734 5736 5737 5739 5740 5742 5743 5745 5747 5749 5750 5752 5753 5755 5756 5758 5759 5761 5762 5764 5766 5767 5769 5770 5772 5773 5774 5775 5776 5777 5778 5779 5780
5712 5712 5713 5714 5713 5712 5713 5714 5717 5715 5715 5717 5718 5719 5721 5722 5723 5725 5727 5728 5730 5731 5733 5735 5737 5739 5740 5742 5744 5745 5746 5748 5749 5751 5752 5754 5755 5757 5759 5760 5762 5763 5765 5766 5767 5768 5770 5771 5772
5702 5702 5702 5704 5703 5701 5701 5704 5706 5705 5705 5706 5707 5708 5709 5711 5712 5714 5716 5717 5719 5721 5723 5724 5726 5728 5730 5731 5733 5734 5736 5737 5738 5740 5741 5743 5745 5747 5749 5750 5752 5753 5755 5756 5758 5759 5760 5761 5762
5693 5692 5692 5692 5692 5690 5690 5692 5694 5693 5694 5695 5696 5697 5698 5700 5701 5702 5704 5706 5708 5710 5711 5713 5715 5717 5718 5720 5722 5723 5725 5726 5727 5729 5730 5732 5734 5736 5737 5739 5741 5742 5744 5745 5747 5748 5749 5750 5751
5682 5681 5681 5681 5679 5679 5679 5681 5682 5682 5682 5684 5685 5685 5687 5688 5689 5690 5692 5694 5695 5697 5699 5701 5703 5705 5707 5708 5710 5712 5713 5715 5716 5718 5719 5721 5723 5724 5726 5728 5729 5731 5733 5734 5735 5737 5738 5739 5740
5672 5671 5671 5670 5668 5667 5668 5669 5670 5670 5671 5672 5672 5673 5674 5676 5677 5678 5679 5681 5683 5685 5687 5689 5691 5693 5694 5696 5698 5700 5701 5702 5704 5705 5707 5709 5711 5712 5714 5716 5717 5719 5720 5722 5723 5725 5726 5727 5728
5662 5661 5660 5659 5657 5655 5655 5656 5659 5660 5659 5660 5660 5661 5662 5663 5664 5665 5667 5669 5670 5672 5674 5676 5678 5680 5682 5684 5685 5687 5689 5690 5691 5693 5695 5696 5698 5699 5701 5703 5704 5706 5707 5709 5710 5712 5714 5715 5716
5651 5651 5648 5646 5645 5644 5644 5641 5648 5647 5647 5648 5648 5648 5649 5650 5651 5652 5654 5656 5657 5659 5661 5663 5665 5667 5669 5670 5672 5674 5676 5678 5680 5681 5682 5683 5685 5687 5688 5689 5691 5692 5694 5696 5697 5699 5700 5702 5703
5640 5639 5636 5635 5632 5631 5632 5629 5634 5635 5635 5636 5635 5635 5635 5636 5637 5639 5640 5642 5644 5645 5647 5649 5651 5653 5655 5657 5659 5661 5663 5665 5667 5668 5669 5670 5672 5673 5675 5676 5677 5679 5681 5682 5684 5685 5687 5688 5689
5628 5627 5625 5623 5621 5620 5622 5619 5619 5623 5623 5623 5622 5622 5622 5623 5624 5625 5626 5628 5629 5631 5633 5635 5637 5639 5641 5643 5645 5647 5649 5650 5652 5654 5655 5656 5658 5659 5661 5662 5664 5665 5667 5668 5670 5671 5673 5674 5675
5618 5616 5613 5610 5609 5609 5610 5607 5609 5611 5611 5611 5610 5610 5610 5611 5611 5612 5613 5614 5616 5617 5619 5620 5622 5624 5626 5628 5630 5632 5634 5636 5637 5639 5641 5642 5643 5645 5647 5648 5649 5651 5652 5653 5655 5657 5658 5659 5660
5607 5605 5604 5601 5599 5598 5598 5597 5600 5600 5599 5598 5598 5598 5598 5598 5599 5600 5601 5601 5602 5603 5605 5606 5608 5610 5611 5613 5615 5617 5619 5621 5622 5624 5626 5627 5629 5630 5631 5633 5634 5636 5637 5638 5640 5642 5643 5644 5645
5596 5595 5594 5591 5588 5587 5587 5588 5589 5588 5587 5586 5586 5586 5586 5586 5587 5587 5588 5588 5589 5589 5591 5592 5593 5595 5596 5598 5600 5602 5603 5605 5607 5608 5610 5612 5613 5614 5615 5617 5619 5620 5622 5623 5625 5626 5627 5628 5629
5587 5585 5583 5581 5578 5577 5577 5578 5578 5577 5576 5576 5575 5574 5575 5574 5574 5574 5575 5575 5575 5576 5576 5577 5578 5579 5581 5582 5584 5586 5587 5589 5590 5592 5594 5596 5597 5598 5600 5601 5603 5605 5606 5608 5609 5610 5611 5612 5613
5578 5576 5574 5571 5570 5568 5566 5570 5568 5566 5565 5564 5564 5563 5563 5563 5562 5562 5562 5562 5562 5562 5562 5563 5563 5564 5565 5566 5568 5569 5571 5572 5574 5576 5577 5579 5581 5582 5583 5585 5587 5589 5590 5592 5593 5594 5595 5596 5597
5567 5566 5564 5563 5561 5559 5557 5561 5558 5557 5554 5553 5552 5552 5551 5551 5550 5550 5550 5550 5549 5549 5549 5549 5549 5549 5549 5550 5551 5553 5554 5556 5557 5559 5561 5563 5564 5566 5567 5568 5570 5572 5573 5575 5576 5577 5578 5579 5580